EW1732 Weather Reports


Display with metric or nautical units.
time (UTC)temp
F
wind
direction
speed
MPH
gust
MPH
rain 1hr
in
rain 24hr
in
rain mn
in
humidity
%
barometer
mb
20260830235856 72 77 0.0 0.0 0.00 0.00 0.00 91 1018.0
20260830234827 72 77 0.0 0.0 0.00 0.00 0.00 91 1017.8
20260830232650 73 77 0.0 0.0 0.00 0.00 0.00 89 1017.8
20260830225334 73 48 0.0 0.0 0.00 0.00 0.00 88 1017.7
20260830224307 74 48 0.0 0.0 0.00 0.00 0.00 87 1017.8
20260830223324 74 48 0.0 0.0 0.00 0.00 0.00 87 1017.8
20260830222338 74 48 0.0 0.0 0.00 0.00 0.00 86 1017.7
20260830221312 74 48 0.0 0.0 0.00 0.00 0.00 86 1017.8
20260830220237 74 141 0.0 0.0 0.00 0.00 0.00 86 1017.9
20260830215227 74 325 0.0 0.0 0.00 0.00 0.00 86 1017.9
20260830214206 74 300 0.0 0.0 0.00 0.00 0.00 85 1017.9
20260830213201 74 321 0.0 0.0 0.00 0.00 0.00 85 1017.7
20260830212150 75 301 0.0 0.0 0.00 0.00 0.00 85 1017.8
20260830211130 75 323 0.0 2.0 0.00 0.00 0.00 84 1017.8
20260830210136 75 19 0.0 0.0 0.00 0.00 0.00 84 1018.0
20260830205119 75 4 0.0 0.0 0.00 0.00 0.00 83 1018.0
20260830204143 74 69 0.0 0.0 0.00 0.00 0.00 84 1018.2
20260830202532 74 120 0.0 0.0 0.00 0.00 0.00 83 1018.3
20260830201505 74 321 0.0 2.0 0.00 0.00 0.00 82 1018.3
20260830195413 75 93 0.0 0.0 0.00 0.00 0.00 82 1018.3
20260830192029 75 352 0.0 6.0 0.00 0.00 0.00 78 1018.8
20260830190001 76 328 0.0 0.0 0.00 0.00 0.00 75 1019.2
20260830184936 76 249 0.0 1.0 0.00 0.00 0.00 73 1019.1
20260830183913 77 250 0.0 5.0 0.00 0.00 0.00 71 1019.2
20260830181817 78 139 0.0 3.0 0.00 0.00 0.00 69 1019.5
20260830180744 79 143 0.0 4.0 0.00 0.00 0.00 67 1019.5
20260830175806 79 14 0.0 4.0 0.00 0.00 0.00 66 1019.6
20260830174740 79 146 0.0 2.0 0.00 0.00 0.00 68 1019.6
20260830172614 78 40 0.0 3.0 0.00 0.00 0.00 70 1019.8
20260830171546 77 128 0.0 1.0 0.00 0.00 0.00 71 1020.0
20260830165357 77 82 0.0 0.0 0.00 0.00 0.00 66 1020.2
20260830164418 77 11 0.0 3.0 0.00 0.00 0.00 65 1020.1
20260830162301 76 305 0.0 1.0 0.00 0.00 0.00 64 1020.4
20260830161323 77 100 0.0 0.0 0.00 0.00 0.00 64 1020.6
20260830160321 76 345 0.0 2.0 0.00 0.00 0.00 64 1020.8
20260830155254 77 20 0.0 1.0 0.00 0.00 0.00 63 1020.8
20260830154237 76 351 0.0 1.0 0.00 0.00 0.00 66 1020.9
20260830153254 76 4 0.0 0.0 0.00 0.00 0.00 67 1021.1
20260830152306 75 323 0.0 0.0 0.00 0.00 0.00 67 1021.2
20260830151240 75 113 0.0 0.0 0.00 0.00 0.00 67 1021.3
20260830150233 75 342 0.0 1.0 0.00 0.00 0.00 65 1021.5
20260830145212 75 163 0.0 0.0 0.00 0.00 0.00 67 1021.6
20260830144208 74 333 0.0 3.0 0.00 0.00 0.00 70 1021.6
20260830140909 72 91 0.0 0.0 0.00 0.00 0.00 72 1021.6
20260830135846 71 182 0.0 0.0 0.00 0.00 0.00 75 1021.6
20260830134823 70 216 0.0 1.0 0.00 0.00 0.00 77 1021.7
20260830133819 68 199 0.0 0.0 0.00 0.00 0.00 78 1021.7
20260830131647 67 231 0.0 0.0 0.00 0.00 0.00 80 1022.0
20260830130642 67 96 0.0 0.0 0.00 0.00 0.00 81 1022.1
20260830125630 66 283 0.0 0.0 0.00 0.00 0.00 82 1022.2
20260830124639 65 252 0.0 2.0 0.00 0.00 0.00 85 1022.2
20260830123626 64 82 0.0 0.0 0.00 0.00 0.00 88 1022.3
20260830122626 63 236 0.0 0.0 0.00 0.00 0.00 90 1022.3
20260830121614 63 307 0.0 0.0 0.00 0.00 0.00 90 1022.4
20260830120630 62 114 0.0 0.0 0.00 0.00 0.00 91 1022.5
20260830115611 62 119 0.0 0.0 0.00 0.00 0.00 91 1022.6
20260830114547 62 119 0.0 0.0 0.00 0.00 0.00 91 1022.7
20260830113529 61 119 0.0 0.0 0.00 0.00 0.00 90 1022.6
20260830112511 61 119 0.0 0.0 0.00 0.00 0.00 90 1022.7
20260830111447 61 119 0.0 0.0 0.00 0.00 0.00 90 1022.6
20260830110445 61 119 0.0 0.0 0.00 0.00 0.00 90 1022.5
20260830105509 61 117 0.0 0.0 0.00 0.00 0.00 90 1022.5
20260830103317 61 117 0.0 0.0 0.00 0.00 0.00 89 1022.4
20260830102258 61 117 0.0 0.0 0.00 0.00 0.00 89 1022.4
20260830101256 61 117 0.0 0.0 0.00 0.00 0.00 89 1022.4
20260830100304 61 117 0.0 0.0 0.00 0.00 0.00 89 1022.4
20260830095240 62 117 0.0 0.0 0.00 0.00 0.00 88 1022.4
20260830093137 62 117 0.0 0.0 0.00 0.00 0.00 88 1022.5
20260830092117 62 117 0.0 0.0 0.00 0.00 0.00 87 1022.4
20260830091118 62 127 0.0 0.0 0.00 0.00 0.00 87 1022.5
20260830090110 62 127 0.0 0.0 0.00 0.00 0.00 87 1022.6
20260830085059 62 129 0.0 0.0 0.00 0.00 0.00 87 1022.6
20260830084025 62 115 0.0 0.0 0.00 0.00 0.00 87 1022.6
20260830083042 62 110 0.0 0.0 0.00 0.00 0.00 87 1022.5
20260830082010 62 110 0.0 0.0 0.00 0.00 0.00 87 1022.6
20260830081012 62 160 0.0 0.0 0.00 0.00 0.00 88 1022.7
20260830073745 60 224 0.0 0.0 0.00 0.00 0.00 92 1022.8
20260830072749 59 224 0.0 0.0 0.00 0.00 0.00 93 1022.6
20260830070618 59 224 0.0 0.0 0.00 0.00 0.00 93 1022.5
20260830065630 59 224 0.0 0.0 0.00 0.00 0.00 93 1022.6
20260830064621 58 224 0.0 0.0 0.00 0.00 0.00 93 1022.7
20260830063621 58 224 0.0 0.0 0.00 0.00 0.00 94 1022.7
20260830062626 58 233 0.0 0.0 0.00 0.00 0.00 93 1022.8
20260830061630 58 233 0.0 0.0 0.00 0.00 0.00 93 1022.7
20260830060631 58 233 0.0 0.0 0.00 0.00 0.00 93 1022.8
20260830055618 58 233 0.0 0.0 0.00 0.00 0.00 93 1022.7
20260830054632 58 233 0.0 0.0 0.00 0.00 0.00 92 1022.5
20260830053623 58 233 0.0 0.0 0.00 0.00 0.00 92 1022.4
20260830052550 58 233 0.0 0.0 0.00 0.00 0.00 91 1022.5
20260830051601 58 233 0.0 0.0 0.00 0.00 0.00 91 1022.5
20260830050551 58 233 0.0 0.0 0.00 0.00 0.00 91 1022.6
20260830045543 58 233 0.0 0.0 0.00 0.00 0.00 90 1022.7
20260830044552 58 233 0.0 0.0 0.00 0.00 0.00 90 1022.7
20260830043525 58 233 0.0 0.0 0.00 0.00 0.00 89 1022.7
20260830041329 59 233 0.0 0.0 0.00 0.00 0.00 89 1022.5
20260830040323 59 233 0.0 0.0 0.00 0.00 0.00 89 1022.5
20260830035315 59 233 0.0 0.0 0.00 0.00 0.00 88 1022.6
20260830034337 59 233 0.0 0.0 0.00 0.00 0.00 88 1022.5
20260830033337 59 233 0.0 0.0 0.00 0.00 0.00 88 1022.5
20260830031241 59 233 0.0 0.0 0.00 0.00 0.00 87 1022.4
20260830030233 59 233 0.0 0.0 0.00 0.00 0.00 87 1022.5
20260830025208 59 233 0.0 0.0 0.00 0.00 0.00 87 1022.6
20260830024232 59 233 0.0 0.0 0.00 0.00 0.00 87 1022.5
20260830023211 59 233 0.0 0.0 0.00 0.00 0.00 87 1022.6
20260830022212 59 233 0.0 0.0 0.00 0.00 0.00 87 1022.4
20260830021159 60 233 0.0 0.0 0.00 0.00 0.00 87 1022.5
20260830020218 60 233 0.0 0.0 0.00 0.00 0.00 87 1022.5
20260830014050 61 233 0.0 0.0 0.00 0.00 0.00 87 1022.5
20260830013056 61 233 0.0 0.0 0.00 0.00 0.00 87 1022.4
20260830012032 61 233 0.0 0.0 0.00 0.00 0.00 87 1022.3
20260830011051 61 233 0.0 0.0 0.00 0.00 0.00 87 1022.2
20260830010021 62 233 0.0 0.0 0.00 0.00 0.00 86 1022.2
20260830004947 62 233 0.0 0.0 0.00 0.00 0.00 86 1021.9
20260830003927 63 233 0.0 0.0 0.00 0.00 0.00 83 1021.8
20260830002917 63 233 0.0 0.0 0.00 0.00 0.00 82 1021.8
20260830000706 64 233 0.0 0.0 0.00 0.00 0.00 78 1022.0